Location: Unspecified
(36.9193°S, 174.7252°E)
Time: 11:18:30
(UTC+13:00)

Envisat - Pass Details

Date: 22 September 2021
Orbit: 764 x 766 km, 98.2° (Epoch: 16 October)

Event Time Altitude Azimuth Distance (km) Brightness Sun altitude
Rises 04:49:33 0° 10° (N) 3,219 6.2 -17.0°
Reaches altitude 10° 04:51:50 10° 8° (N) 2,301 5.4 -16.6°
Maximum altitude 04:56:55 76° 283° (WNW) 801 2.9 -15.6°
Drops below altitude 10° 05:02:04 10° 196° (SSW) 2,333 5.5 -14.6°
Sets 05:04:24 0° 194° (SSW) 3,267 6.2 -14.1°
